QPF
0.00 0.00 0.00 0.00 0.00 0.00 0.00 0.00 0.00 0.00 0.01 0.01 0.01 0.00 0.00 0.00 0.00 0.00 0.00 0.00 0.00 0.00 0.00 0.00 0.00 0.00 0.00 0.00 0.00 0.00 0.00 0.00 0.00 0.00 0.00 0.00 0.00 0.00 0.00 0.00 0.00 0.00 0.00
0.00 0.00 0.00 0.00 0.00 0.00 0.00 0.00 0.00 0.01 0.00 0.00 0.00 0.00 0.00 0.00 0.00 0.00 0.00 0.00 0.00 0.00 0.00 0.00 0.00 0.00 0.00 0.00 0.00 0.00 0.00 0.00 0.00 0.00 0.00 0.00 0.00 0.00 0.00 0.00 0.00 0.00 0.00
0.00 0.00 0.00 0.00 0.00 0.00 0.00 0.00 0.00 0.00 0.01 0.00 0.00 0.00 0.00 0.00 0.00 0.00 0.00 0.00 0.00 0.00 0.00 0.00 0.00 0.00 0.00 0.00 0.00 0.00 0.00 0.00 0.00 0.00 0.00 0.00 0.00 0.00 0.00 0.00 0.00 0.00 0.00
0.00 0.00 0.00 0.00 0.00 0.00 0.00 0.00 0.00 0.00 0.00 0.00 0.00 0.00 0.00 0.00 0.00 0.00 0.00 0.00 0.00 0.00 0.00 0.00 0.00 0.00 0.00 0.00 0.00 0.00 0.00 0.00 0.00 0.00 0.00 0.00 0.00 0.00 0.00 0.00 0.00 0.00 0.00
0.00 0.00 0.00 0.00 0.00 0.00 0.00 0.00 0.00 0.00 0.00 0.00 0.00 0.00 0.00 0.00 0.00 0.00 0.00 0.00 0.00 0.00 0.00 0.00 0.00 0.00 0.00 0.00 0.00 0.00 0.00 0.00 0.00 0.00 0.00 0.00 0.00 0.00 0.00 0.00 0.00 0.00 0.00
0.00 0.00 0.00 0.00 0.00 0.00 0.00 0.00 0.00 0.00 0.00 0.00 0.00 0.00 0.00 0.00 0.00 0.00 0.00 0.00 0.00 0.00 0.00 0.00 0.00 0.00 0.00 0.00 0.00 0.00 0.00 0.00 0.00 0.00 0.00 0.00 0.00 0.00 0.00 0.00 0.00 0.00 0.00
0.00 0.00 0.00 0.00 0.00 0.00 0.00 0.00 0.00 0.00 0.00 0.00 0.00 0.00 0.00 0.00 0.00 0.00 0.00 0.00 0.00 0.00 0.00 0.00 0.00 0.00 0.00 0.00 0.00 0.00 0.00 0.00 0.00 0.00 0.00 0.00 0.00 0.00 0.00 0.00 0.00 0.00 0.00
0.00 0.00 0.00 0.00 0.00 0.00 0.00 0.00 0.00 0.00 0.00 0.00 0.00 0.00 0.00 0.00 0.00 0.00 0.00 0.00 0.00 0.00 0.00 0.00 0.00 0.00 0.00 0.00 0.00 0.00 0.00 0.00 0.00 0.00 0.00 0.00 0.00 0.00 0.00 0.00 0.00 0.00 0.00
0.00 0.00 0.00 0.00 0.00 0.00 0.00 0.00 0.00 0.00 0.00 0.00 0.00 0.00 0.00 0.00 0.00 0.00 0.00 0.00 0.00 0.00 0.00 0.00 0.00 0.00 0.00 0.00 0.00 0.00 0.00 0.00 0.00 0.00 0.00 0.00 0.00 0.00 0.00 0.00 0.00 0.00 0.00
0.00 0.00 0.00 0.00 0.00 0.00 0.00 0.00 0.00 0.00 0.00 0.00 0.00 0.00 0.00 0.00 0.00 0.00 0.00 0.00 0.00 0.00 0.00 0.00 0.00 0.00 0.00 0.00 0.00 0.00 0.00 0.00 0.00 0.00 0.00 0.00 0.00 0.00 0.00 0.00 0.00 0.00 0.00
0.00 0.00 0.00 0.00 0.00 0.00 0.00 0.00 0.00 0.00 0.00 0.00 0.00 0.00 0.00 0.00 0.00 0.00 0.00 0.00 0.00 0.00 0.00 0.00 0.00 0.00 0.00 0.00 0.00 0.00 0.00 0.00 0.00 0.00 0.00 0.00 0.00 0.00 0.00 0.00 0.00 0.00 0.00
0.00 0.00 0.00 0.00 0.00 0.00 0.00 0.00 0.00 0.00 0.00 0.00 0.00 0.00 0.00 0.00 0.00 0.00 0.00 0.00 0.00 0.00 0.00 0.00 0.00 0.00 0.00 0.00 0.00 0.00 0.00 0.00 0.00 0.00 0.00 0.00 0.00 0.00 0.00 0.00 0.00 0.00 0.00
0.00 0.00 0.00 0.00 0.00 0.00 0.00 0.00 0.00 0.00 0.00 0.00 0.00 0.00 0.00 0.00 0.00 0.00 0.00 0.00 0.00 0.00 0.00 0.00 0.00 0.00 0.00 0.00 0.00 0.00 0.00 0.00 0.00 0.00 0.00 0.00 0.00 0.00 0.00 0.00 0.00 0.00 0.00
0.00 0.00 0.00 0.00 0.00 0.00 0.00 0.00 0.00 0.00 0.00 0.00 0.00 0.00 0.00 0.00 0.00 0.00 0.00 0.00 0.00 0.00 0.00 0.00 0.00 0.00 0.00 0.00 0.00 0.00 0.00 0.00 0.00 0.00 0.00 0.00 0.00 0.00 0.00 0.00 0.00 0.00 0.00
0.00 0.00 0.00 0.00 0.00 0.00 0.00 0.00 0.00 0.00 0.00 0.00 0.00 0.00 0.00 0.00 0.00 0.00 0.00 0.00 0.00 0.00 0.00 0.00 0.00 0.00 0.00 0.00 0.00 0.00 0.00 0.00 0.00 0.00 0.00 0.00 0.00 0.00 0.00 0.00 0.00 0.00 0.00
0.00 0.00 0.00 0.00 0.00 0.00 0.00 0.00 0.00 0.00 0.00 0.00 0.00 0.00 0.00 0.00 0.00 0.00 0.00 0.00 0.00 0.00 0.00 0.00 0.00 0.00 0.00 0.00 0.00 0.00 0.00 0.00 0.00 0.00 0.00 0.00 0.00 0.00 0.00 0.00 0.00 0.00 0.00
0.00 0.00 0.00 0.00 0.00 0.00 0.00 0.00 0.00 0.00 0.00 0.00 0.00 0.00 0.00 0.00 0.00 0.00 0.00 0.00 0.00 0.00 0.00 0.00 0.00 0.00 0.00 0.00 0.00 0.00 0.00 0.00 0.00 0.00 0.00 0.00 0.00 0.00 0.00 0.00 0.00 0.00 0.00
0.00 0.00 0.00 0.00 0.00 0.00 0.00 0.00 0.00 0.00 0.00 0.00 0.00 0.00 0.00 0.00 0.00 0.00 0.00 0.00 0.00 0.00 0.00 0.00 0.00 0.00 0.00 0.00 0.00 0.00 0.00 0.00 0.00 0.00 0.00 0.00 0.00 0.00 0.00 0.00 0.00 0.00 0.00
0.00 0.00 0.00 0.00 0.00 0.00 0.00 0.00 0.00 0.00 0.00 0.00 0.00 0.00 0.00 0.00 0.00 0.00 0.00 0.00 0.00 0.00 0.00 0.00 0.00 0.00 0.00 0.00 0.00 0.00 0.00 0.00 0.00 0.00 0.00 0.00 0.00 0.00 0.00 0.00 0.00 0.00 0.00
0.00 0.00 0.00 0.00 0.00 0.00 0.00 0.00 0.00 0.00 0.00 0.00 0.00 0.00 0.00 0.00 0.00 0.00 0.00 0.00 0.00 0.00 0.00 0.00 0.00 0.00 0.00 0.00 0.00 0.00 0.00 0.00 0.00 0.00 0.00 0.00 0.00 0.00 0.00 0.00 0.00 0.00 0.00
0.00 0.00 0.00 0.00 0.00 0.00 0.00 0.00 0.00 0.00 0.00 0.00 0.00 0.00 0.00 0.00 0.00 0.00 0.00 0.00 0.00 0.00 0.00 0.00 0.00 0.00 0.00 0.00 0.00 0.00 0.00 0.00 0.00 0.00 0.00 0.00 0.00 0.00 0.00 0.00 0.00 0.00 0.00
0.00 0.00 0.00 0.00 0.00 0.00 0.00 0.00 0.00 0.00 0.00 0.00 0.00 0.00 0.00 0.00 0.00 0.00 0.00 0.00 0.00 0.00 0.00 0.00 0.00 0.00 0.00 0.00 0.00 0.00 0.00 0.00 0.00 0.00 0.00 0.00 0.00 0.00 0.00 0.00 0.00 0.00 0.00
0.00 0.00 0.00 0.00 0.00 0.00 0.00 0.00 0.00 0.00 0.00 0.00 0.00 0.00 0.00 0.00 0.00 0.00 0.00 0.00 0.00 0.00 0.00 0.00 0.00 0.00 0.00 0.00 0.00 0.00 0.00 0.00 0.00 0.00 0.00 0.00 0.00 0.00 0.00 0.00 0.00 0.00 0.00
0.00 0.00 0.00 0.00 0.00 0.00 0.00 0.00 0.00 0.00 0.00 0.00 0.00 0.00 0.00 0.00 0.00 0.00 0.00 0.00 0.00 0.00 0.00 0.00 0.00 0.00 0.00 0.00 0.00 0.00 0.00 0.00 0.00 0.00 0.00 0.00 0.00 0.00 0.00 0.00 0.00 0.00 0.00
0.00 0.00 0.00 0.00 0.00 0.00 0.00 0.00 0.00 0.00 0.00 0.00 0.00 0.00 0.00 0.00 0.00 0.00 0.00 0.00 0.00 0.00 0.00 0.00 0.00 0.00 0.00 0.00 0.00 0.00 0.00 0.00 0.00 0.00 0.00 0.00 0.00 0.00 0.00 0.00 0.00 0.00 0.00
0.00 0.00 0.00 0.00 0.00 0.00 0.00 0.00 0.00 0.00 0.00 0.00 0.00 0.00 0.00 0.00 0.00 0.00 0.00 0.00 0.00 0.00 0.00 0.00 0.00 0.00 0.00 0.00 0.00 0.00 0.00 0.00 0.00 0.00 0.00 0.00 0.00 0.00 0.00 0.00 0.00 0.00 0.00
MSLP
1002.03 1001.59 1001.42 1001.21 1000.77 1000.47 1000.41 1000.45 1000.05 999.58 1000.22 1000.91 1000.91 1001.90 1002.59 1003.53 1004.53 1005.85 1007.17 1007.70 1009.03 1010.50 1011.87 1012.41 1013.59 1014.71 1015.84 1016.96 1017.96 1018.61 1019.57 1020.50 1022.40 1024.33 1025.21 1026.10 1026.82 1027.49 1028.32 1028.82 1028.86 1028.93 1028.91
1001.14 1000.86 1000.74 1000.69 1000.50 1000.47 1000.55 1000.53 1000.59 1000.52 1000.97 1001.01 1002.19 1003.51 1003.70 1004.33 1005.25 1006.34 1007.90 1008.90 1009.59 1011.24 1012.40 1013.05 1014.49 1015.40 1015.94 1017.41 1018.24 1019.00 1019.83 1020.99 1021.88 1023.43 1025.12 1025.81 1026.54 1027.14 1027.70 1028.35 1028.68 1028.64 1028.62
1000.74 1000.58 1000.78 1000.89 1001.00 1001.06 1001.19 1001.06 1001.00 1001.62 1002.04 1002.82 1002.56 1003.95 1004.46 1005.68 1006.17 1007.65 1008.44 1009.62 1010.70 1012.00 1013.12 1013.99 1015.05 1015.67 1016.45 1017.90 1019.14 1019.62 1020.36 1021.68 1022.23 1023.19 1024.59 1025.55 1026.61 1027.27 1027.77 1028.23 1028.50 1028.29 1028.12
1001.14 1001.10 1001.25 1001.46 1001.61 1001.50 1001.81 1001.89 1001.88 1002.37 1002.88 1003.58 1004.36 1004.47 1006.07 1006.36 1007.34 1008.73 1009.78 1010.71 1011.56 1012.80 1014.00 1014.40 1015.56 1016.41 1017.30 1018.38 1019.11 1020.09 1020.76 1021.43 1022.37 1023.52 1024.52 1025.56 1026.72 1027.59 1027.64 1028.09 1028.14 1028.24 1028.03
1002.45 1002.12 1002.16 1002.22 1002.23 1002.27 1002.68 1002.90 1003.10 1003.78 1004.39 1004.91 1006.14 1006.94 1007.95 1007.72 1008.70 1009.92 1010.79 1012.00 1012.91 1013.90 1015.09 1015.58 1016.50 1017.25 1018.26 1018.54 1019.34 1020.38 1020.98 1021.48 1022.63 1023.77 1024.88 1025.84 1026.68 1027.18 1027.58 1027.98 1028.35 1028.16 1027.89
1003.97 1003.52 1003.45 1003.19 1003.20 1003.45 1003.56 1004.14 1004.75 1005.16 1005.65 1006.56 1007.44 1008.18 1008.85 1009.77 1010.57 1011.20 1011.94 1012.90 1013.92 1015.08 1016.07 1016.86 1017.62 1018.33 1018.96 1019.39 1019.98 1020.72 1021.11 1021.17 1022.35 1023.33 1024.62 1025.20 1025.84 1026.75 1027.58 1027.92 1028.25 1028.36 1028.24
1005.65 1004.68 1004.73 1004.58 1004.53 1004.90 1005.12 1005.50 1005.64 1006.70 1007.09 1008.04 1008.91 1009.39 1010.26 1011.41 1011.85 1012.55 1013.51 1014.43 1015.20 1016.04 1016.96 1017.86 1018.77 1019.42 1020.04 1020.52 1020.88 1021.42 1021.67 1021.85 1022.42 1023.15 1024.16 1025.00 1025.95 1026.78 1027.36 1027.79 1028.19 1028.37 1028.21
1006.98 1006.73 1006.31 1006.05 1006.07 1006.23 1006.24 1006.80 1007.59 1008.05 1008.59 1009.56 1010.32 1011.06 1011.68 1012.53 1012.91 1013.79 1014.42 1015.47 1016.34 1017.14 1017.80 1018.56 1019.43 1020.29 1020.96 1021.31 1021.64 1022.25 1022.76 1023.14 1023.62 1023.79 1024.57 1025.69 1026.08 1026.79 1027.24 1027.55 1027.91 1028.22 1028.17
1008.65 1008.26 1007.97 1007.81 1007.81 1007.67 1008.09 1008.67 1009.05 1009.54 1010.07 1010.97 1012.01 1012.39 1012.87 1013.91 1014.55 1015.07 1015.45 1016.46 1017.23 1018.28 1019.26 1019.94 1020.42 1020.92 1021.32 1021.35 1021.71 1022.44 1023.31 1024.13 1024.55 1024.79 1025.23 1025.89 1026.27 1026.80 1027.35 1027.80 1028.16 1028.65 1028.85
1010.18 1009.94 1009.68 1009.47 1009.27 1009.32 1009.70 1010.26 1010.79 1010.99 1011.51 1012.44 1013.47 1013.97 1014.67 1015.30 1015.89 1016.22 1016.66 1017.21 1018.27 1019.11 1020.02 1020.52 1021.23 1021.22 1021.49 1021.87 1022.16 1022.74 1023.83 1024.60 1025.14 1025.67 1026.06 1026.32 1026.75 1027.10 1027.10 1027.40 1027.90 1028.62 1029.08
1011.76 1011.35 1011.08 1010.96 1010.85 1011.10 1011.36 1011.71 1012.08 1012.54 1013.06 1013.94 1014.67 1015.51 1015.73 1016.11 1016.88 1017.35 1017.77 1017.89 1018.69 1019.50 1019.99 1020.65 1021.17 1021.53 1021.80 1022.11 1022.62 1023.10 1023.57 1024.49 1025.22 1025.80 1026.35 1026.83 1026.97 1027.07 1027.33 1027.59 1027.89 1028.29 1028.63
1013.22 1012.97 1012.82 1012.73 1012.79 1012.87 1012.96 1013.38 1013.66 1013.90 1014.44 1015.14 1015.83 1016.37 1016.81 1017.19 1017.66 1017.90 1018.06 1018.33 1019.01 1019.63 1020.29 1020.75 1021.13 1021.80 1022.09 1022.46 1023.10 1023.26 1023.89 1024.99 1025.72 1026.39 1026.71 1026.89 1027.03 1027.15 1027.31 1027.56 1027.68 1027.89 1027.97
1014.43 1014.38 1014.36 1014.29 1014.36 1014.47 1014.53 1014.81 1014.96 1015.23 1015.53 1016.19 1016.85 1017.60 1017.83 1018.17 1018.14 1018.13 1018.55 1019.24 1019.87 1020.55 1020.78 1021.13 1021.48 1021.90 1022.27 1023.01 1023.45 1023.71 1024.98 1025.58 1026.12 1026.65 1026.70 1026.77 1026.52 1026.70 1027.24 1027.66 1027.85 1027.81 1027.66
1015.55 1015.59 1015.58 1015.50 1015.56 1015.59 1015.55 1015.72 1016.03 1016.32 1016.60 1017.07 1017.61 1018.03 1018.48 1019.07 1019.04 1019.29 1019.78 1020.20 1020.59 1021.00 1021.28 1021.66 1022.16 1022.75 1023.57 1023.65 1023.80 1024.22 1025.19 1025.61 1025.82 1026.10 1026.37 1026.20 1026.61 1026.82 1027.26 1027.47 1027.58 1027.63 1027.65
1016.60 1016.67 1016.73 1016.75 1016.78 1016.84 1016.91 1017.08 1017.22 1017.33 1017.44 1017.78 1018.40 1018.91 1019.32 1019.63 1019.78 1019.99 1020.26 1020.56 1020.94 1021.35 1021.79 1022.48 1023.16 1023.55 1024.14 1024.38 1024.54 1024.78 1025.12 1025.25 1025.49 1025.69 1026.01 1026.39 1026.69 1026.88 1026.89 1027.07 1027.19 1027.40 1027.50
1017.44 1017.46 1017.49 1017.55 1017.65 1017.72 1017.82 1017.94 1017.88 1017.96 1018.01 1018.22 1018.56 1018.86 1019.11 1019.29 1019.49 1019.74 1020.08 1020.45 1020.93 1021.48 1022.49 1023.23 1023.65 1023.95 1024.29 1024.59 1024.78 1024.76 1024.65 1025.03 1025.40 1025.74 1026.07 1026.32 1026.78 1026.88 1026.80 1026.62 1026.65 1026.96 1026.75
1017.86 1017.93 1017.99 1018.09 1018.23 1018.34 1018.46 1018.60 1018.85 1018.72 1018.62 1018.66 1018.82 1018.94 1019.07 1019.15 1019.41 1019.72 1020.13 1020.64 1021.30 1022.11 1023.32 1023.83 1024.07 1024.11 1024.06 1024.20 1024.42 1024.61 1024.78 1024.61 1024.99 1025.44 1025.75 1026.02 1026.23 1026.34 1026.55 1026.46 1026.36 1026.35 1026.19
1017.98 1018.03 1018.08 1018.20 1018.33 1018.48 1018.63 1018.74 1018.88 1019.17 1019.58 1019.38 1019.15 1019.19 1019.28 1019.51 1019.86 1020.19 1020.61 1021.10 1021.93 1021.95 1023.16 1023.45 1023.52 1023.63 1023.72 1023.85 1023.98 1024.31 1024.35 1024.51 1024.74 1024.98 1025.29 1025.46 1025.56 1025.79 1025.90 1025.83 1025.77 1025.77 1025.64
1018.21 1018.20 1018.27 1018.33 1018.43 1018.55 1018.67 1018.82 1018.96 1019.09 1019.25 1019.51 1019.74 1019.64 1019.69 1019.61 1019.69 1019.84 1020.10 1020.91 1021.51 1021.90 1022.45 1022.89 1022.77 1022.92 1023.00 1023.03 1023.17 1023.37 1023.60 1023.93 1024.08 1024.26 1024.35 1024.54 1024.69 1024.99 1025.02 1024.96 1024.84 1024.80 1024.80
1017.88 1017.75 1017.90 1018.25 1018.39 1018.53 1018.69 1018.87 1019.05 1019.24 1019.44 1019.61 1019.70 1019.84 1019.71 1019.80 1019.56 1019.66 1019.80 1020.29 1020.88 1021.14 1021.38 1021.66 1021.70 1021.80 1021.99 1022.21 1022.30 1022.47 1022.73 1022.98 1023.10 1023.29 1023.43 1023.61 1023.70 1023.81 1023.76 1023.78 1023.81 1023.83 1023.84
1018.03 1018.21 1018.11 1018.41 1018.47 1018.61 1018.74 1018.82 1018.95 1019.08 1019.17 1019.18 1019.16 1018.96 1018.94 1019.26 1019.26 1019.40 1019.71 1019.76 1019.95 1020.20 1020.44 1020.59 1020.69 1020.78 1020.93 1021.12 1021.33 1021.63 1021.84 1021.86 1021.95 1022.04 1022.21 1022.33 1022.47 1022.56 1022.49 1022.53 1022.61 1022.75 1022.72
1017.55 1018.10 1018.15 1018.14 1018.19 1018.19 1018.21 1018.32 1018.40 1018.46 1018.52 1018.58 1018.62 1018.45 1018.19 1018.27 1018.91 1019.10 1019.09 1018.96 1018.92 1018.95 1019.06 1019.40 1019.60 1019.69 1019.84 1020.06 1020.30 1020.59 1020.78 1020.84 1020.92 1021.06 1021.23 1021.34 1021.43 1021.42 1021.48 1021.61 1021.67 1021.69 1021.72
1017.26 1017.65 1017.55 1017.49 1017.45 1017.48 1017.54 1017.54 1017.63 1017.75 1017.83 1017.88 1017.95 1018.02 1017.98 1017.52 1017.37 1017.56 1017.74 1017.76 1017.78 1017.89 1018.11 1018.45 1018.58 1018.76 1018.86 1018.97 1019.13 1019.35 1019.61 1019.64 1019.69 1019.93 1020.14 1020.32 1020.42 1020.43 1020.50 1020.53 1020.55 1020.64 1020.73
1016.66 1016.94 1016.85 1016.72 1016.70 1016.73 1016.78 1016.81 1016.86 1016.94 1017.03 1017.10 1017.21 1017.24 1017.20 1017.12 1017.14 1017.05 1016.97 1016.91 1016.94 1016.95 1017.12 1017.33 1017.50 1017.65 1017.81 1018.02 1018.23 1018.44 1018.59 1018.67 1018.85 1018.97 1019.14 1019.36 1019.42 1019.40 1019.43 1019.43 1019.45 1019.52 1019.70
1016.01 1016.08 1016.03 1016.00 1015.99 1016.00 1016.06 1016.16 1016.26 1016.35 1016.42 1016.56 1016.67 1016.68 1016.47 1016.41 1016.35 1016.32 1016.31 1016.30 1016.35 1016.44 1016.49 1016.61 1016.71 1016.82 1017.00 1017.18 1017.36 1017.48 1017.56 1017.64 1017.82 1018.03 1018.20 1018.31 1018.27 1018.30 1018.39 1018.45 1018.49 1018.58 1018.70
1015.16 1015.23 1015.29 1015.36 1015.41 1015.50 1015.63 1015.69 1015.80 1016.02 1016.08 1015.99 1015.94 1015.90 1015.87 1015.86 1015.72 1015.67 1015.67 1015.75 1015.77 1015.75 1015.76 1015.87 1015.96 1016.09 1016.24 1016.35 1016.40 1016.47 1016.59 1016.61 1016.64 1016.64 1016.83 1016.98 1017.03 1017.06 1017.18 1017.28 1017.35 1017.45 1017.49
Thickness
5391 5404 5414 5429 5442 5453 5473 5498 5522 5546 5557 5563 5569 5571 5572 5569 5565 5558 5553 5555 5547 5538 5529 5526 5520 5514 5504 5496 5488 5482 5474 5465 5449 5431 5423 5412 5403 5395 5387 5378 5373 5371 5369
5395 5405 5415 5427 5435 5443 5456 5482 5504 5523 5537 5549 5547 5545 5547 5549 5551 5545 5539 5534 5534 5523 5517 5513 5504 5497 5495 5483 5475 5469 5460 5451 5443 5428 5412 5403 5395 5386 5380 5372 5365 5362 5361
5401 5409 5412 5417 5422 5433 5448 5472 5494 5507 5517 5524 5539 5535 5535 5528 5532 5526 5526 5518 5515 5509 5502 5498 5492 5485 5480 5468 5457 5453 5447 5435 5428 5419 5404 5394 5382 5375 5369 5362 5357 5358 5354
5401 5405 5410 5413 5418 5431 5447 5467 5486 5499 5509 5514 5518 5522 5513 5516 5514 5509 5502 5501 5499 5493 5486 5485 5475 5470 5463 5454 5448 5439 5431 5424 5416 5404 5394 5383 5371 5363 5360 5354 5351 5347 5345
5397 5403 5406 5412 5419 5433 5449 5466 5481 5488 5493 5500 5495 5494 5490 5497 5496 5491 5486 5482 5479 5474 5466 5465 5459 5454 5447 5443 5435 5425 5418 5413 5401 5389 5379 5369 5361 5357 5350 5344 5338 5336 5334
5393 5398 5403 5411 5422 5434 5451 5461 5470 5477 5483 5485 5485 5483 5478 5475 5474 5472 5471 5467 5463 5455 5450 5444 5440 5435 5431 5427 5420 5413 5406 5404 5392 5383 5372 5368 5359 5350 5339 5334 5328 5321 5316
5392 5403 5403 5411 5424 5434 5445 5454 5463 5463 5467 5466 5465 5466 5464 5458 5459 5456 5451 5446 5442 5438 5432 5426 5420 5415 5411 5408 5403 5396 5393 5388 5383 5375 5365 5358 5347 5337 5331 5324 5317 5310 5305
5391 5395 5403 5413 5423 5431 5441 5445 5446 5449 5451 5449 5448 5447 5448 5445 5446 5440 5437 5430 5425 5421 5416 5411 5404 5398 5393 5389 5386 5379 5375 5370 5363 5359 5352 5341 5336 5327 5319 5312 5305 5299 5291
5394 5398 5403 5410 5417 5425 5428 5431 5433 5435 5437 5435 5432 5433 5433 5429 5426 5425 5422 5415 5412 5404 5396 5391 5389 5385 5381 5380 5377 5370 5360 5352 5346 5343 5337 5329 5322 5314 5305 5297 5288 5277 5267
5396 5399 5403 5408 5413 5418 5419 5420 5421 5424 5424 5421 5418 5417 5415 5413 5411 5409 5407 5405 5397 5391 5385 5381 5375 5375 5372 5369 5366 5361 5349 5342 5335 5328 5323 5316 5308 5300 5293 5286 5277 5260 5250
5394 5398 5402 5405 5409 5409 5410 5411 5412 5412 5412 5408 5407 5403 5405 5403 5398 5395 5394 5395 5388 5382 5379 5375 5370 5367 5364 5361 5355 5349 5342 5332 5325 5317 5309 5300 5294 5288 5281 5272 5263 5251 5234
5391 5393 5395 5396 5398 5399 5401 5400 5401 5402 5400 5397 5394 5393 5391 5390 5388 5388 5387 5387 5382 5377 5373 5370 5366 5359 5355 5350 5342 5336 5328 5319 5312 5302 5295 5290 5283 5277 5269 5257 5247 5235 5222
5388 5388 5388 5389 5389 5390 5391 5391 5392 5392 5391 5387 5384 5380 5380 5379 5381 5384 5382 5377 5372 5364 5363 5360 5356 5350 5343 5335 5327 5323 5315 5305 5296 5289 5284 5279 5273 5263 5251 5241 5229 5218 5206
5382 5381 5381 5381 5381 5382 5384 5384 5383 5382 5381 5379 5377 5376 5374 5371 5373 5371 5367 5363 5360 5355 5354 5349 5342 5332 5325 5321 5316 5309 5301 5295 5289 5282 5274 5266 5256 5244 5232 5223 5212 5204 5193
5378 5377 5377 5376 5375 5375 5375 5375 5375 5375 5376 5373 5370 5368 5364 5360 5361 5360 5356 5353 5350 5347 5341 5333 5325 5319 5312 5306 5301 5296 5292 5286 5278 5270 5260 5250 5238 5227 5218 5209 5198 5185 5174
5377 5375 5373 5373 5371 5371 5370 5369 5372 5372 5372 5371 5369 5365 5362 5362 5361 5358 5355 5352 5348 5342 5330 5321 5316 5311 5305 5298 5293 5289 5283 5274 5264 5253 5241 5231 5221 5212 5203 5191 5182 5171 5161
5374 5373 5372 5371 5369 5367 5366 5365 5363 5365 5368 5368 5366 5365 5363 5362 5359 5355 5350 5345 5339 5331 5314 5308 5303 5301 5297 5292 5285 5277 5268 5261 5251 5239 5228 5216 5205 5194 5184 5172 5164 5155 5146
5377 5378 5375 5373 5372 5370 5368 5366 5365 5362 5358 5358 5363 5361 5360 5356 5351 5346 5341 5335 5324 5321 5310 5302 5297 5292 5287 5281 5273 5263 5253 5244 5234 5223 5212 5200 5190 5179 5166 5159 5149 5139 5130
5380 5380 5380 5378 5376 5375 5373 5370 5367 5364 5360 5356 5354 5354 5351 5351 5348 5343 5338 5325 5316 5308 5302 5295 5290 5283 5276 5268 5260 5250 5240 5230 5219 5209 5198 5188 5177 5166 5156 5147 5137 5126 5115
5386 5386 5384 5380 5376 5374 5372 5368 5364 5361 5357 5352 5348 5346 5343 5340 5336 5333 5327 5318 5313 5306 5297 5290 5283 5275 5266 5257 5248 5239 5229 5218 5209 5199 5188 5177 5166 5155 5145 5135 5123 5112 5100
5388 5384 5382 5377 5374 5371 5367 5364 5361 5357 5354 5351 5350 5346 5344 5336 5332 5326 5321 5312 5306 5298 5289 5282 5273 5265 5256 5247 5238 5228 5218 5209 5199 5188 5177 5166 5155 5144 5134 5123 5111 5098 5088
5388 5383 5378 5377 5373 5371 5372 5367 5360 5355 5353 5349 5345 5341 5341 5335 5321 5314 5308 5303 5297 5290 5282 5273 5264 5255 5246 5235 5225 5215 5205 5195 5184 5174 5164 5153 5142 5131 5120 5108 5097 5085 5073
5386 5382 5379 5379 5376 5373 5369 5366 5362 5357 5350 5344 5339 5334 5327 5325 5321 5312 5302 5295 5287 5279 5271 5261 5252 5243 5233 5223 5213 5202 5192 5182 5172 5161 5150 5140 5129 5118 5106 5095 5083 5072 5061
5385 5381 5381 5377 5373 5368 5364 5360 5356 5352 5347 5341 5334 5326 5318 5312 5304 5298 5292 5286 5277 5269 5260 5251 5241 5230 5220 5209 5198 5188 5178 5168 5157 5146 5135 5125 5114 5103 5092 5081 5071 5060 5049
5382 5382 5378 5374 5369 5365 5359 5353 5348 5344 5338 5327 5319 5312 5307 5299 5292 5286 5279 5271 5264 5255 5247 5236 5226 5216 5205 5194 5184 5174 5164 5153 5141 5130 5119 5108 5098 5087 5076 5066 5056 5046 5036
5381 5377 5372 5367 5362 5357 5351 5345 5339 5330 5320 5315 5307 5301 5294 5287 5281 5273 5265 5256 5248 5240 5230 5220 5210 5200 5190 5179 5168 5158 5148 5138 5127 5116 5104 5095 5086 5075 5063 5053 5043 5035 5024